Theta_e
309 308 308 308 309 310 310 309 308 307 306 306 307 307 308 307 307 307 306 306 305 304 304 303 301 299 298 297 297 296 295 294 293 293 293 293 293 293 294 294 294 294 294 294 294 294 294 293 292 291 290 290 290 289 289 288 288 288 288 288 287 287 287 286 286 287 288 288 287 286 285 285 285 285 286 286 286 286 286 287 287 287 287 287 287
310 310 309 309 310 311 311 310 308 307 306 306 307 307 308 308 307 306 306 306 305 305 304 303 301 299 298 297 297 296 295 294 293 293 293 293 293 293 293 294 293 293 294 294 294 294 294 293 292 290 290 289 289 289 289 288 288 288 288 288 287 287 287 286 286 287 288 288 288 288 287 285 285 285 285 285 286 286 286 286 287 287 287 287 287
310 310 309 309 310 310 310 310 309 307 307 306 307 308 308 308 307 306 306 306 305 305 304 303 301 299 298 297 296 296 295 294 293 293 293 292 293 293 293 293 293 293 293 293 293 293 293 292 291 290 289 289 289 289 288 288 288 288 288 288 287 287 287 287 287 287 288 288 288 288 287 286 285 285 285 286 285 285 286 286 286 286 286 287 287
309 309 308 309 309 309 309 309 309 308 307 307 307 308 308 308 307 307 306 305 305 305 304 302 301 299 298 297 296 296 295 295 293 293 292 292 292 292 293 293 293 293 293 293 293 293 293 292 291 290 289 289 289 289 288 288 288 288 288 287 287 287 287 287 287 287 287 288 289 288 287 286 285 285 285 286 286 285 286 286 286 286 286 286 286
310 309 309 308 308 308 308 308 308 308 308 308 308 307 308 308 308 307 306 305 305 304 303 302 301 300 299 298 297 296 295 295 294 293 292 292 292 292 293 293 293 293 293 293 293 293 292 291 290 290 289 289 289 289 288 288 288 288 288 287 287 287 287 287 286 286 286 287 288 287 287 286 286 285 285 285 285 286 286 286 286 286 286 286 285
311 310 309 309 308 307 308 308 308 309 309 309 308 306 306 307 307 307 306 305 305 304 303 302 301 301 300 298 297 296 295 294 294 293 292 292 292 292 292 292 292 292 292 292 292 292 291 290 290 290 289 289 289 288 288 288 288 287 287 287 287 287 286 286 286 286 286 286 287 287 287 286 286 286 285 284 285 285 286 286 286 285 285 286 285
310 310 310 310 309 307 307 308 308 309 309 308 308 306 305 305 306 306 306 304 303 303 302 302 301 301 299 298 297 296 295 294 294 293 292 292 291 291 292 292 292 292 292 292 291 291 290 290 290 290 289 289 288 288 288 287 287 287 287 287 287 286 285 285 285 286 286 286 286 286 286 286 286 286 285 284 284 284 284 285 285 285 284 284 284
310 310 310 309 309 308 307 308 308 308 307 306 306 305 305 304 305 305 304 303 303 302 301 301 300 299 298 297 296 295 295 294 293 293 292 292 291 291 291 291 291 292 291 291 291 290 290 290 289 289 288 288 288 287 287 287 287 287 286 286 286 285 285 285 286 286 286 285 285 285 285 286 286 285 285 284 284 283 282 283 284 283 283 282 281
309 309 309 309 309 308 307 307 307 306 305 305 305 305 305 304 304 304 303 303 302 301 300 299 298 297 296 296 295 295 294 294 293 293 293 292 291 291 291 291 291 291 291 291 291 290 289 289 289 289 288 287 287 287 286 286 286 286 286 285 285 285 285 286 286 286 285 285 285 285 285 285 285 285 284 284 282 281 280 280 281 282 281 280 280
308 308 308 309 309 309 308 307 306 305 305 304 304 304 304 303 303 303 303 302 301 300 299 298 297 296 296 295 295 295 294 294 293 293 292 292 291 290 290 290 290 291 291 291 290 289 289 289 289 288 288 287 287 287 286 286 286 285 285 285 285 285 286 286 286 285 285 285 284 284 284 285 284 284 283 282 281 280 279 278 279 280 279 279 280
308 307 307 307 308 308 307 306 306 305 305 304 304 304 304 304 303 302 302 301 300 299 298 297 296 296 295 295 295 295 294 294 293 292 292 292 291 290 290 290 290 290 290 290 289 289 289 289 288 288 287 287 287 286 286 286 285 285 285 285 285 286 285 285 285 285 284 284 283 283 283 283 283 283 282 281 280 279 278 277 277 277 277 277 278
306 306 306 306 306 306 305 305 305 305 305 304 303 303 303 303 302 302 301 301 300 298 298 297 296 296 295 295 295 294 294 293 293 292 292 291 290 289 289 290 290 290 290 289 289 288 288 288 288 287 287 287 287 286 286 285 284 284 285 285 284 284 284 284 284 283 282 282 282 281 281 282 282 281 280 278 278 277 277 277 276 276 277 277 277
305 306 305 305 304 304 304 303 303 304 304 304 303 302 302 302 302 301 301 300 299 298 297 297 296 295 295 295 294 294 293 293 292 292 292 291 290 289 289 289 289 289 289 289 288 288 288 288 287 287 287 287 286 286 285 284 284 284 284 284 283 283 283 283 283 282 282 281 280 280 281 280 280 280 279 277 277 277 276 276 276 277 277 277 277
304 304 304 303 303 303 303 302 302 302 302 302 301 301 301 301 300 300 299 299 298 298 297 296 296 296 295 295 294 294 293 292 292 291 291 291 290 289 288 288 288 288 288 288 288 288 287 287 287 287 287 287 286 286 285 284 284 284 283 283 283 283 283 283 283 282 282 281 280 281 280 279 279 279 278 276 276 276 276 276 277 277 277 276 277
302 301 301 300 301 301 301 301 301 301 300 300 300 299 299 299 299 299 298 298 298 298 297 296 296 295 295 294 294 293 293 292 291 291 291 290 289 288 288 287 288 287 287 287 287 287 287 286 287 287 287 287 286 285 284 284 284 283 283 283 283 283 283 283 283 283 282 281 281 280 280 278 277 277 277 276 276 276 276 276 276 276 276 276 277
299 299 299 299 298 299 299 299 299 299 298 298 298 298 298 298 298 298 298 297 297 296 296 296 295 295 295 294 294 293 292 292 291 290 290 289 289 288 287 287 287 287 287 287 286 286 286 286 287 287 287 286 286 285 285 285 284 283 283 283 283 283 283 283 282 282 282 281 280 279 279 278 278 277 277 277 276 276 276 277 277 277 276 276 278
298 298 298 298 298 297 298 298 298 298 297 297 297 298 298 297 297 297 297 297 296 296 296 295 295 295 295 294 293 292 292 291 291 290 289 288 288 287 287 287 286 286 286 286 286 286 286 286 287 287 286 286 286 286 285 284 283 283 283 283 283 283 283 282 282 282 281 281 280 279 279 279 278 278 277 277 277 276 276 277 277 277 276 276 277
298 297 297 297 297 297 297 297 297 297 297 297 297 297 297 297 297 297 297 297 297 296 296 295 295 295 294 294 293 292 292 291 290 290 289 287 287 287 286 286 286 286 286 286 286 286 286 286 286 286 286 286 286 286 284 283 283 283 283 283 282 282 282 282 281 281 281 280 280 280 279 279 278 278 278 278 277 277 276 276 277 276 276 275 275
297 297 297 297 296 296 296 296 297 296 296 296 296 296 296 296 296 296 296 296 296 296 295 295 295 295 294 293 293 292 292 291 290 289 288 287 286 286 286 286 286 286 286 286 286 285 285 286 285 285 285 286 285 284 283 283 283 282 282 282 282 282 282 281 281 281 281 280 280 279 279 279 278 278 278 277 277 277 276 276 276 276 275 275 273
295 296 297 297 296 296 296 296 296 296 295 295 295 295 295 294 294 295 295 295 295 295 294 294 294 294 293 293 292 291 291 290 289 289 287 286 286 286 285 286 286 286 286 286 286 286 286 285 285 285 286 285 284 283 283 282 282 282 282 282 282 282 281 280 280 280 280 280 279 278 278 278 277 277 277 277 277 276 276 276 276 276 274 273 272
294 295 296 297 297 296 296 295 295 295 295 294 294 294 294 293 293 294 294 294 294 293 293 294 293 293 293 293 292 291 290 289 289 288 286 285 285 285 285 285 286 286 286 286 286 286 286 285 285 286 286 285 283 283 282 282 281 282 282 282 282 281 280 280 280 280 279 279 278 277 277 277 277 277 277 276 276 276 276 276 276 275 273 271 271
294 295 295 296 297 297 296 295 295 295 294 293 293 293 293 293 293 292 292 293 293 293 293 293 292 292 292 291 291 290 289 289 288 287 285 284 284 284 285 285 286 286 286 286 286 286 286 285 286 286 284 283 283 282 282 281 281 281 281 281 281 280 279 280 280 279 278 278 277 277 277 276 276 277 276 276 276 276 276 276 275 274 273 272 271
293 294 295 295 296 296 296 295 294 294 294 294 293 292 292 292 292 291 291 291 291 292 292 292 291 291 291 290 290 289 288 287 287 286 285 284 284 284 284 285 285 285 285 285 286 286 285 285 285 284 283 282 282 282 281 281 281 281 281 281 280 279 279 279 278 277 277 277 276 276 276 276 276 276 276 276 276 276 276 275 275 274 274 273 272
291 293 294 294 295 295 295 296 295 294 294 293 293 292 291 291 291 291 291 291 290 291 291 290 290 291 290 290 289 288 288 287 286 284 284 283 283 283 284 284 285 285 285 285 286 285 285 285 285 283 282 282 282 281 281 281 281 281 280 280 279 279 279 278 277 277 276 276 275 275 276 276 276 276 276 275 275 275 276 275 274 274 274 274 273
290 291 292 294 294 295 295 295 296 296 294 293 292 292 292 291 291 291 291 291 290 290 290 290 290 290 290 289 289 288 288 287 285 283 282 283 283 283 283 284 284 285 284 284 284 284 284 284 282 281 281 281 281 281 281 281 280 280 279 279 279 278 277 277 276 276 275 275 275 275 276 276 276 275 275 275 275 275 275 275 274 274 274 274 273
289 290 291 292 293 294 295 295 296 296 296 294 292 291 291 291 291 290 290 290 290 290 290 290 290 289 289 289 288 288 287 286 285 284 282 282 283 282 282 283 283 284 283 283 282 282 282 281 280 279 280 281 281 281 280 280 279 279 279 278 278 277 277 276 275 275 274 274 275 275 275 275 275 275 275 274 275 275 275 274 274 274 273 272 272
288 288 289 290 291 293 295 296 296 296 296 295 294 292 291 291 290 290 290 290 290 290 290 290 290 289 289 289 289 288 287 286 286 284 282 281 282 282 282 282 282 282 281 281 280 280 280 279 279 279 280 281 281 280 279 279 279 278 278 277 277 276 276 275 274 274 274 274 275 275 275 275 275 275 274 274 275 275 274 273 272 273 272 270 270
287 287 288 289 290 292 293 295 296 296 296 296 295 294 293 292 291 290 290 290 290 290 290 291 291 290 290 289 289 287 287 287 286 286 284 282 281 281 281 281 280 280 280 279 279 280 280 279 280 280 280 280 280 279 279 278 278 277 277 276 276 275 275 274 274 274 274 274 274 274 274 274 274 274 274 274 274 275 274 272 272 272 272 270 270
286 287 288 288 289 290 292 294 295 295 295 295 295 295 295 293 292 291 290 289 289 289 289 290 290 290 289 289 289 289 288 289 288 286 285 283 282 281 281 280 280 280 281 281 281 281 280 280 279 279 279 279 279 279 278 278 277 277 276 276 275 275 274 274 274 274 274 274 274 274 274 274 274 274 274 274 274 274 274 272 271 271 271 270 270
285 286 287 288 288 288 290 292 294 294 294 294 294 294 294 293 292 291 289 289 288 287 287 287 288 288 288 288 288 289 289 290 289 286 284 282 282 281 281 280 281 281 282 282 282 281 280 279 279 279 279 279 279 278 277 277 277 276 276 275 275 274 274 274 274 274 274 274 274 274 274 274 274 274 273 273 274 274 274 272 271 270 270 269 270
283 285 286 287 287 286 286 289 292 293 293 293 292 292 292 292 291 291 289 288 288 287 286 286 286 286 286 286 286 286 286 286 286 285 283 282 281 280 280 280 281 281 282 282 281 280 279 279 279 279 279 278 278 277 277 277 276 276 275 275 275 274 274 274 274 274 274 274 274 274 274 273 273 273 273 273 273 274 274 273 271 270 269 269 270
281 283 285 285 285 284 283 285 288 290 291 291 290 290 291 290 291 290 289 288 287 286 286 285 285 284 284 284 284 285 284 284 284 283 282 281 280 280 279 280 280 280 281 281 280 279 279 278 278 278 278 278 277 277 277 277 276 275 275 275 275 274 274 274 274 274 274 274 274 274 273 273 273 273 273 273 272 273 273 272 271 270 269 269 269
279 281 283 282 282 281 281 282 284 286 288 289 288 288 289 290 290 290 288 287 286 285 284 284 283 283 283 283 283 283 283 283 283 283 281 280 279 279 279 279 279 279 280 280 279 278 278 278 278 278 278 277 277 277 277 276 276 275 275 275 275 274 274 274 274 274 274 274 274 273 273 273 273 273 272 272 271 271 271 271 270 269 269 269 269
277 278 279 279 278 279 279 280 281 283 285 286 286 287 287 288 289 288 287 286 284 283 283 282 282 281 281 281 282 282 282 282 282 282 280 279 279 278 278 279 278 278 279 279 279 278 278 278 278 278 277 277 277 277 276 276 275 275 275 275 275 274 274 274 274 273 273 273 273 273 273 273 272 272 272 271 271 270 270 269 269 269 269 269 269
273 276 277 277 277 277 279 280 281 282 283 284 284 285 286 286 287 286 286 285 284 283 283 282 281 280 280 279 280 280 281 281 281 280 279 279 278 278 278 278 277 276 277 278 278 278 278 278 278 278 277 277 276 276 276 275 275 275 275 275 274 274 274 273 273 273 273 273 273 273 273 272 272 271 271 271 270 270 269 269 269 269 269 269 269
273 275 277 277 277 277 278 279 280 281 282 283 283 284 284 285 285 285 285 284 283 282 282 281 281 280 279 279 278 279 279 280 279 279 278 278 278 278 278 277 277 277 278 278 278 278 278 277 277 277 276 276 276 275 275 275 275 275 275 274 274 274 273 273 273 273 273 273 273 273 272 271 271 271 270 270 269 268 268 268 268 269 269 269 269
272 273 274 275 276 277 278 279 280 281 282 282 283 283 283 283 284 283 283 282 282 281 280 280 280 279 278 278 277 277 278 279 278 278 278 278 278 278 277 277 278 279 279 278 278 277 277 277 277 276 276 275 275 275 275 275 275 274 274 274 274 273 273 273 273 273 273 273 273 272 272 271 271 270 270 269 268 268 268 268 268 269 269 269 268
270 271 271 273 274 275 277 278 279 280 281 281 282 282 282 282 282 282 282 281 280 280 279 279 279 279 278 278 277 277 277 278 278 278 278 278 278 277 277 278 279 280 279 278 278 277 277 276 276 276 275 275 275 275 275 275 274 274 274 274 273 273 273 273 273 272 272 272 272 272 271 271 271 270 269 268 268 268 268 268 269 269 269 269 268
269 270 272 272 273 274 276 277 278 280 280 281 281 281 281 281 281 281 280 280 279 279 278 278 278 278 278 278 277 277 277 278 278 278 278 278 278 277 277 278 279 279 278 278 277 277 276 276 275 275 274 274 274 275 274 274 274 274 274 273 273 273 273 272 272 272 272 272 272 272 271 270 270 270 268 267 267 268 268 268 268 268 268 268 268
269 270 271 272 273 275 276 276 277 278 279 280 280 280 280 280 280 280 279 279 278 278 278 278 278 278 278 277 277 277 278 278 278 278 278 278 278 278 278 278 278 278 277 277 276 276 275 275 274 274 274 274 274 274 274 274 274 274 273 273 273 273 273 272 272 272 272 272 272 271 271 270 270 269 268 267 267 268 268 268 268 268 268 268 268
269 270 270 271 273 274 276 276 277 277 278 279 280 279 279 279 279 279 279 278 278 278 277 277 277 277 277 277 277 277 278 278 278 278 278 278 278 278 278 277 277 277 276 276 276 275 275 274 274 274 274 274 274 274 274 274 274 273 273 273 273 273 273 272 272 272 272 272 271 271 270 270 269 268 267 267 268 268 268 268 268 268 268 268 268
269 270 271 271 272 273 275 276 276 277 278 279 279 279 279 279 278 278 278 278 277 277 277 277 277 277 277 277 277 278 278 278 278 278 278 278 278 278 277 277 276 276 276 275 275 275 274 274 274 274 274 274 274 274 274 274 273 273 273 273 273 273 273 272 272 272 272 272 271 270 270 269 269 268 267 267 268 268 268 268 268 268 268 268 268
270 270 271 272 272 273 274 275 276 277 278 279 279 279 279 278 278 278 277 277 276 276 276 276 276 276 277 277 277 278 278 278 278 278 278 278 278 277 277 276 276 275 275 274 274 274 273 273 273 273 274 274 274 274 273 273 273 273 273 273 273 273 273 272 272 272 272 271 271 270 269 269 268 268 268 268 268 268 268 268 268 268 268 268 268
270 271 272 273 273 274 274 275 276 277 278 278 279 279 278 277 277 276 276 276 276 276 276 276 276 276 277 277 277 278 278 278 277 277 277 277 277 276 276 276 275 274 274 274 273 273 273 273 273 273 273 273 273 273 273 273 273 273 273 273 273 273 272 272 272 272 271 271 270 269 269 268 268 268 268 268 268 268 268 268 268 268 268 268 267
270 271 272 273 274 274 275 275 276 277 277 278 278 277 277 276 276 276 276 276 275 276 276 276 276 276 276 277 277 277 277 277 277 277 277 276 276 275 275 275 274 274 274 273 273 273 273 273 273 273 273 273 273 273 273 273 273 273 273 273 273 272 272 272 272 271 271 270 269 269 268 268 268 268 268 268 268 268 268 268 268 268 268 267 267
271 272 273 273 274 274 275 275 276 276 277 277 277 276 276 275 275 275 275 275 275 275 275 275 276 276 276 276 277 277 277 276 276 276 276 276 275 275 274 274 274 274 273 273 273 273 273 273 273 273 273 273 273 273 272 272 272 272 272 272 272 272 272 271 271 271 271 270 269 268 268 268 268 268 268 268 268 268 268 268 268 268 267 267 267
271 272 272 273 273 274 275 275 276 276 276 276 275 275 275 274 274 274 275 275 275 275 275 275 275 276 276 276 276 276 276 276 276 275 275 275 274 274 274 274 273 273 273 273 273 273 272 272 272 273 273 273 272 272 272 272 272 272 272 272 272 271 271 271 271 271 270 269 268 268 268 268 268 268 268 268 268 268 268 268 268 268 267 267 267
271 272 272 273 273 274 274 274 275 274 274 274 274 274 274 274 274 274 274 274 274 274 275 275 275 275 275 275 275 275 275 275 275 275 274 274 274 273 273 273 273 273 273 273 272 272 272 272 272 272 272 272 272 272 272 272 272 272 272 271 271 271 271 271 271 270 269 269 268 268 268 268 268 268 267 267 268 268 267 268 268 268 267 267 267
271 271 272 272 273 273 273 273 273 273 273 273 273 273 273 273 273 273 273 274 274 274 274 275 275 275 275 274 274 274 274 275 274 274 274 273 273 273 273 273 273 272 272 272 272 272 272 272 272 272 272 272 272 272 272 272 272 272 271 271 271 271 271 270 270 270 269 269 268 268 268 268 268 268 267 267 268 268 267 268 268 267 267 267 267
271 271 271 272 272 272 272 272 272 273 273 273 273 273 273 273 273 273 273 273 273 274 274 274 275 275 274 273 274 274 274 274 274 273 273 273 273 273 273 272 272 272 272 272 272 272 272 272 272 272 272 272 272 272 271 271 271 271 271 271 271 271 270 270 270 270 269 269 268 268 268 268 268 267 267 267 268 267 267 268 268 267 267 267 267
270 270 271 271 271 271 272 272 272 272 272 272 272 272 272 272 272 272 273 273 273 273 274 274 274 274 273 274 274 274 274 273 273 273 273 273 273 272 272 272 272 272 272 272 272 272 272 272 272 272 271 271 271 271 271 271 271 271 271 271 271 271 270 270 270 270 269 268 268 268 268 268 267 267 267 268 267 267 267 268 268 267 267 267 267
Wind_Speed
34 36 38 38 39 41 43 45 46 47 47 47 47 46 46 46 46 46 46 46 46 45 45 44 44 43 42 42 43 45 47 48 49 48 46 44 42 40 38 37 35 32 30 28 27 27 26 25 25 24 23 22 22 22 21 20 19 18 17 18 18 19 22 25 30 35 33 30 32 36 40 42 41 40 41 42 41 39 39 39 39 40 41 41 41
32 33 36 38 40 42 45 47 48 50 50 50 50 48 48 48 48 48 48 48 47 46 46 46 45 44 43 42 42 44 46 48 49 49 48 46 44 42 40 39 36 34 32 30 28 27 26 26 25 24 23 23 22 22 21 20 19 18 18 19 18 19 22 25 29 34 36 34 32 35 39 43 44 42 42 44 44 42 39 38 38 39 40 41 41
34 35 38 39 41 43 46 49 51 52 53 53 52 50 49 49 50 50 50 49 48 47 47 47 46 45 44 42 42 43 45 47 49 50 49 48 46 44 42 40 38 35 33 30 28 28 27 27 26 25 24 23 22 22 22 20 20 19 19 19 19 20 22 24 28 32 36 37 34 35 39 43 45 44 42 44 45 44 41 40 40 40 41 41 41
37 39 41 42 44 46 49 51 53 54 55 55 54 52 51 51 52 52 51 51 50 49 49 48 48 47 45 43 43 43 44 46 49 50 50 48 47 45 43 41 39 36 33 31 29 28 28 27 26 25 24 23 23 22 21 21 20 20 20 20 20 21 22 24 26 30 34 38 37 36 38 42 44 44 43 44 45 44 42 42 42 43 43 43 43
39 41 43 45 48 49 50 52 55 56 56 56 56 55 54 53 53 53 53 53 52 51 50 50 49 48 47 46 44 43 43 45 48 50 50 49 47 45 44 42 40 37 34 32 31 30 29 27 26 25 25 24 23 22 22 22 22 21 20 20 21 22 22 23 25 28 33 37 39 39 39 41 43 44 44 44 46 46 43 42 43 44 45 46 45
39 42 46 49 51 53 53 54 56 57 57 58 58 58 57 56 56 55 55 54 54 53 53 52 51 50 49 48 45 43 43 44 47 49 49 49 47 46 45 43 40 38 36 34 32 30 29 27 26 26 26 25 23 23 23 22 22 20 20 20 21 21 22 22 24 28 32 35 39 40 40 41 43 45 45 44 45 47 47 46 45 44 46 48 48
44 48 51 54 55 56 56 55 55 56 58 59 59 59 59 59 58 57 56 56 56 55 54 54 52 51 50 48 46 44 43 44 45 47 48 48 48 48 47 44 42 39 38 35 33 31 29 28 27 27 26 25 24 23 23 22 21 20 19 20 21 21 21 22 25 28 31 34 36 38 40 41 42 45 45 44 44 44 45 49 51 49 48 49 49
51 54 55 56 58 59 58 55 54 56 58 59 59 60 60 60 59 58 57 57 57 56 55 54 53 52 51 49 47 45 44 44 45 46 48 49 49 49 48 46 44 41 39 36 33 32 30 28 27 26 26 24 23 23 22 22 20 19 20 20 20 21 21 23 26 28 31 34 35 37 39 41 42 44 45 45 46 45 44 46 51 52 51 50 48
52 55 57 56 56 56 57 54 53 55 58 59 59 59 59 60 59 58 58 57 57 56 55 54 53 52 51 48 47 46 45 45 45 46 48 49 51 51 49 46 44 42 39 36 34 33 30 28 27 27 26 24 23 23 22 21 20 19 19 20 20 21 23 24 27 29 31 33 35 36 38 40 42 43 44 44 44 45 44 43 48 51 51 53 51
50 53 55 56 54 53 54 55 54 55 56 57 58 58 58 58 58 58 57 56 56 55 54 54 53 52 50 49 48 47 47 47 46 46 47 49 50 51 49 47 44 42 39 37 35 33 31 29 28 27 26 25 24 23 22 21 20 19 19 21 21 22 23 25 27 29 31 33 34 34 37 39 39 40 41 42 41 42 43 42 47 51 51 54 55
48 51 52 51 52 53 55 56 55 55 54 55 56 56 56 57 57 57 56 56 55 54 54 54 53 52 50 49 48 48 48 48 47 46 47 49 50 51 49 47 45 43 40 38 36 33 31 30 29 28 27 25 24 22 22 21 20 20 21 22 21 22 24 26 27 28 30 31 31 32 34 37 37 36 37 39 39 40 41 40 42 46 47 50 54
48 51 50 48 49 52 55 56 55 54 53 53 54 55 56 56 57 56 56 55 54 53 53 53 52 51 49 49 48 48 48 48 47 47 47 49 50 50 49 47 46 44 41 39 36 33 32 30 29 28 27 25 23 22 21 21 21 22 21 20 20 21 22 24 26 27 27 28 29 29 31 33 35 34 34 35 36 38 39 39 40 42 44 45 47
42 45 46 46 46 48 51 54 54 53 52 52 53 55 56 56 56 56 55 54 52 52 52 51 51 50 49 49 48 47 47 48 47 46 47 48 49 50 50 48 46 44 41 38 36 34 33 31 30 28 26 25 24 22 21 21 22 21 19 18 19 20 21 23 24 24 24 25 27 28 28 29 32 33 32 31 33 38 40 41 40 40 42 43 45
35 38 40 42 44 44 46 49 51 52 52 52 53 54 55 55 55 54 53 52 51 51 50 50 50 50 49 48 47 47 47 47 46 46 46 48 50 50 50 48 45 42 40 38 36 34 33 31 30 28 26 25 24 22 22 22 21 19 18 18 20 21 22 23 23 22 22 23 26 27 26 27 29 32 32 30 32 36 38 39 39 40 44 48 51
36 35 36 38 40 42 43 44 47 49 50 51 52 53 54 53 53 52 52 52 51 49 49 49 49 49 48 47 46 47 48 47 45 45 47 49 51 51 50 48 45 42 40 38 36 34 32 31 30 28 26 24 23 23 23 22 20 18 18 19 21 21 22 23 22 22 22 23 25 26 26 26 28 30 32 31 30 32 35 38 41 44 48 51 52
40 38 35 35 36 38 39 41 43 45 47 49 50 51 51 51 50 50 50 50 49 48 48 48 48 48 47 46 46 47 47 46 45 46 48 50 52 52 51 48 46 43 40 38 36 34 33 32 30 28 26 24 24 24 23 21 20 19 19 21 22 22 22 22 22 21 22 23 24 25 26 26 27 28 29 29 29 32 37 41 42 44 47 49 51
43 41 37 34 33 34 35 36 39 41 43 46 48 49 49 48 49 49 49 49 48 48 48 47 47 46 46 46 46 47 47 45 45 47 49 51 53 54 51 48 46 43 40 37 36 35 34 33 30 28 26 25 25 24 22 21 20 20 20 21 22 22 22 22 21 21 22 23 23 25 26 26 26 27 28 29 31 33 38 42 42 42 44 47 49
46 45 41 36 31 30 31 32 34 36 39 42 44 46 47 47 48 47 47 48 47 46 46 45 45 45 45 45 45 45 46 45 45 47 49 52 54 54 50 48 45 42 39 38 36 36 35 32 30 28 27 26 25 23 20 20 21 20 20 21 22 22 22 21 20 21 22 23 24 25 25 25 26 28 29 30 31 32 36 40 41 41 42 43 44
46 46 44 40 34 31 28 28 29 32 35 38 40 43 44 45 46 46 46 46 45 44 44 43 44 44 44 44 44 44 45 45 45 47 49 52 55 53 49 48 46 43 41 39 37 36 34 32 30 30 28 25 23 21 20 20 21 20 20 21 22 22 21 20 21 23 23 24 25 25 25 26 27 29 30 31 31 32 35 37 38 38 39 40 40
43 45 45 42 39 35 30 28 27 28 30 33 36 39 41 43 44 45 44 44 43 43 43 42 42 42 42 43 43 44 45 45 45 48 49 51 54 52 49 48 47 44 41 39 38 37 34 33 32 30 28 24 21 20 19 19 20 20 20 22 22 21 20 20 21 23 23 24 25 26 27 27 28 30 31 32 32 33 34 35 35 35 35 36 37
39 41 43 43 41 38 35 31 28 27 27 30 33 36 38 40 42 43 43 43 42 42 42 42 41 41 41 42 43 44 45 45 45 47 48 50 51 51 49 47 46 43 40 39 38 36 35 34 32 30 27 23 21 20 19 19 20 20 21 22 21 19 20 22 22 21 23 24 25 26 27 27 29 30 31 32 32 33 34 34 34 33 31 32 36
38 38 40 41 41 40 38 35 31 28 27 28 31 34 36 38 40 41 41 42 41 41 41 41 41 41 41 42 43 45 46 45 45 46 48 49 50 51 49 45 44 42 40 39 38 36 35 34 31 28 25 22 21 20 20 19 20 20 21 21 19 19 20 22 22 21 22 24 25 26 27 27 29 30 30 31 32 32 33 34 33 32 31 32 34
40 38 37 38 39 40 40 39 35 30 27 27 28 32 34 36 38 39 40 40 40 40 41 41 41 41 41 42 44 46 46 45 44 46 47 47 48 50 48 45 43 42 40 39 38 35 34 33 29 26 24 22 21 20 20 20 21 21 20 19 18 20 21 20 21 22 23 24 25 26 26 27 29 30 30 31 32 32 33 33 32 31 33 34 34
42 40 38 37 37 37 38 39 38 34 29 27 27 29 32 35 36 37 38 39 40 40 41 41 41 41 42 43 45 46 45 44 44 45 46 46 45 47 48 45 43 42 40 39 37 35 34 32 29 26 24 22 21 21 21 21 21 19 19 19 19 19 19 19 21 22 24 24 25 26 26 26 28 29 30 32 33 33 34 33 32 31 33 35 37
45 43 41 38 37 36 35 37 38 37 34 30 28 28 31 33 36 38 39 40 40 41 41 41 40 41 42 43 45 45 44 44 43 44 46 44 41 42 45 44 42 42 41 39 37 35 33 30 27 24 23 22 22 21 20 20 19 19 18 18 18 17 18 19 21 23 24 25 25 26 26 26 27 29 31 32 33 34 35 34 33 33 34 36 39
48 46 44 40 38 37 35 35 36 37 36 34 31 29 30 32 35 38 39 40 41 41 41 40 40 42 43 44 45 45 44 43 43 44 47 45 40 37 39 40 41 42 41 38 35 34 31 27 24 23 23 22 21 19 18 18 18 18 16 16 16 16 18 20 21 23 24 25 25 26 26 26 28 29 30 33 34 34 35 35 36 37 36 38 43
48 48 46 42 39 38 37 36 36 37 37 36 33 32 32 33 35 38 40 41 41 41 41 42 42 43 45 45 45 45 44 43 44 45 48 48 43 37 36 37 38 40 39 36 34 31 28 26 25 24 23 21 18 17 18 17 16 15 15 15 15 16 17 20 21 23 24 25 26 26 26 27 29 30 31 33 35 35 35 35 38 39 39 40 44
47 48 48 45 41 39 38 38 38 37 37 37 36 36 36 36 37 39 41 41 42 42 42 42 42 42 44 45 45 46 45 45 46 48 50 52 49 43 39 37 37 37 36 34 32 30 29 28 26 23 20 19 18 18 17 15 14 14 14 14 15 15 17 20 21 22 24 25 26 27 27 28 29 31 33 35 37 36 35 35 37 40 41 41 44
48 48 48 47 44 42 40 39 39 39 38 38 39 39 39 38 39 40 41 41 41 42 42 42 41 41 42 43 44 45 45 45 47 47 49 51 52 50 45 41 37 35 34 33 32 32 31 27 23 21 20 19 18 17 16 15 14 14 13 13 14 15 17 19 21 22 23 24 26 27 28 29 30 32 34 36 37 37 36 36 37 40 42 42 45
50 48 47 47 46 44 42 42 41 40 40 39 40 40 40 40 40 40 41 41 41 42 42 42 42 41 42 43 43 43 42 42 43 46 48 50 52 51 48 44 40 37 36 35 33 31 28 24 22 21 20 19 18 16 16 15 13 12 12 13 14 16 17 19 20 22 22 23 25 26 28 29 31 33 35 37 39 38 36 36 37 39 42 44 46
49 48 46 46 46 44 43 44 43 41 40 40 40 40 40 41 41 41 41 42 42 42 43 43 43 43 43 43 42 41 41 40 41 44 47 50 52 51 49 46 43 40 40 38 34 29 25 23 23 23 21 20 19 17 16 14 12 11 12 13 14 16 17 18 20 21 22 23 24 26 27 29 31 34 35 37 39 40 38 38 39 41 42 44 46
45 46 45 44 43 42 42 44 44 43 41 40 41 41 41 41 41 41 41 42 43 43 43 44 44 45 45 43 41 41 41 40 39 41 44 49 50 49 48 47 44 42 41 38 32 28 26 25 24 23 22 21 20 17 15 13 12 12 12 13 14 16 17 18 19 20 21 23 25 25 27 29 31 34 35 36 37 39 40 40 41 42 44 46 47
40 42 42 40 40 40 40 42 44 44 43 42 41 42 42 43 43 42 41 41 42 43 43 44 44 44 45 44 42 41 39 38 37 38 41 46 47 46 46 45 44 42 41 37 31 28 28 27 25 24 23 21 19 17 15 13 12 13 14 14 14 14 16 17 18 19 20 22 24 25 27 29 31 33 35 35 36 38 40 41 43 44 45 48 51
36 38 38 37 37 38 39 40 42 43 44 43 42 42 43 43 43 42 41 41 40 41 42 42 42 42 41 40 40 40 39 37 36 37 40 44 46 46 44 42 40 39 38 34 31 30 30 28 27 26 24 21 19 16 14 13 13 13 14 14 13 13 14 15 17 18 19 21 23 25 27 29 31 33 35 36 36 38 40 42 44 45 46 50 54
36 39 40 39 38 38 39 40 40 41 42 42 42 42 42 42 42 42 42 42 41 41 41 39 38 37 37 37 37 37 37 37 36 35 39 44 46 45 43 40 38 37 36 32 31 31 31 29 28 26 23 21 18 15 14 13 13 13 13 13 13 13 13 14 16 18 19 21 23 25 27 29 30 31 33 35 36 38 41 43 44 45 47 51 55
39 40 39 38 36 36 37 39 39 40 40 41 41 41 41 41 42 42 41 41 40 40 39 37 35 33 32 33 34 34 34 36 35 35 39 44 45 44 44 43 42 40 38 35 34 33 31 29 27 24 22 20 17 15 14 14 13 13 13 12 12 12 13 14 15 17 19 21 23 25 27 29 30 31 32 34 35 37 40 43 44 46 48 51 55
37 36 36 36 35 34 35 37 38 38 39 38 39 40 40 41 41 40 40 39 38 37 36 35 33 30 29 30 32 31 31 33 34 36 39 42 43 44 46 46 43 41 39 37 36 34 31 29 26 23 21 18 16 14 14 13 13 13 12 11 12 12 12 14 15 17 20 21 22 25 26 28 30 30 31 34 36 38 41 42 43 47 51 53 54
38 38 38 38 37 35 35 36 37 37 38 38 38 39 39 40 40 39 39 38 36 35 34 33 33 32 33 33 31 29 30 31 34 36 38 40 44 46 47 45 42 40 37 35 34 32 30 27 25 22 19 17 15 14 13 13 12 12 11 11 11 11 12 14 15 17 20 21 22 24 27 29 30 30 31 33 37 40 41 42 43 48 54 56 56
43 42 41 39 37 36 35 34 35 36 36 37 38 38 38 38 38 38 37 36 34 34 33 33 33 34 36 35 32 32 34 37 39 41 43 46 49 49 45 41 38 35 34 33 32 31 28 25 22 20 18 16 15 13 13 13 12 11 11 11 10 11 12 14 15 17 20 22 23 25 27 29 30 31 31 33 37 39 40 42 46 50 53 56 57
39 39 39 37 35 35 34 33 33 33 34 36 37 36 37 37 37 36 36 35 34 34 34 34 35 36 37 36 35 37 41 44 45 47 49 51 49 46 41 38 35 34 33 33 31 29 26 24 21 19 17 15 14 13 13 12 12 11 11 10 10 10 12 14 16 18 20 22 24 26 27 29 31 32 32 34 36 37 39 43 48 51 52 54 56
38 38 38 35 34 33 34 35 35 32 31 34 35 35 35 36 35 35 35 34 34 34 34 35 36 37 37 36 37 41 45 48 49 51 52 49 45 43 41 38 35 34 33 31 29 27 25 22 19 17 16 14 13 12 12 12 12 11 11 11 10 11 12 13 16 19 20 22 25 26 27 29 30 31 33 35 36 37 40 45 49 50 52 54 56
36 36 35 34 32 31 31 33 34 32 30 31 33 34 34 34 33 34 33 33 33 34 34 35 36 37 36 36 40 45 48 50 52 52 51 48 45 43 41 38 35 33 31 29 27 24 22 20 18 16 14 13 12 12 12 12 12 11 11 11 11 12 13 14 17 19 21 23 25 26 27 29 30 31 34 35 36 39 44 47 49 50 53 55 56
32 32 31 30 30 29 28 29 30 30 30 30 31 32 32 32 32 32 32 33 33 34 35 36 36 36 36 39 44 49 51 52 53 52 50 47 45 42 38 35 33 31 28 26 24 22 19 18 16 14 13 12 12 12 12 12 11 11 11 11 12 13 14 16 18 20 22 24 25 26 28 29 30 32 34 34 36 42 47 47 48 51 54 56 56
27 27 27 28 28 27 26 26 28 30 30 30 30 31 31 31 31 32 32 33 34 35 37 38 38 39 40 42 47 50 51 52 52 50 47 45 42 38 35 33 32 30 27 25 23 21 18 17 15 13 12 12 11 11 12 12 11 11 12 12 12 14 16 17 19 21 22 24 26 27 28 29 31 33 34 35 38 44 47 46 47 51 54 56 56
24 25 24 24 24 23 23 24 26 28 29 29 30 30 30 30 31 31 33 34 36 37 38 39 41 43 44 45 47 50 51 50 49 46 43 41 38 35 33 32 30 28 26 24 21 19 17 15 13 12 11 11 11 11 11 11 11 11 12 13 14 15 16 18 20 21 23 24 26 26 28 30 32 33 34 37 41 44 44 44 47 51 54 56 56
20 20 19 18 17 18 19 21 24 26 28 29 29 29 29 30 30 32 34 36 37 38 40 41 44 47 46 45 47 50 50 47 44 41 38 36 34 33 32 30 28 26 24 22 20 18 16 14 12 11 10 10 10 10 9 10 11 12 13 14 15 16 17 19 20 22 23 24 24 25 27 30 32 33 35 39 43 42 40 42 47 51 53 55 55
13 13 13 13 14 15 17 20 23 25 26 27 28 29 30 30 32 33 35 36 38 39 41 44 46 47 46 46 47 48 46 41 38 36 34 33 33 32 30 29 27 25 23 21 19 17 15 13 12 11 10 9 9 8 9 10 11 12 14 15 16 16 18 19 21 22 23 23 23 24 27 30 31 33 37 41 41 39 39 43 47 51 53 54 54
10 10 11 12 13 16 18 20 22 24 25 26 27 28 30 31 32 33 35 36 38 40 42 44 46 46 46 45 45 44 40 36 34 34 33 32 31 30 29 27 26 24 22 20 18 16 14 13 11 10 9 9 8 8 9 10 11 13 14 15 16 17 18 19 21 22 22 21 23 25 27 29 31 35 39 40 38 37 39 43 48 51 52 53 54
8 8 9 11 12 14 16 18 21 22 24 25 26 28 29 30 31 33 35 36 38 40 43 44 45 46 44 42 40 39 37 34 33 33 32 31 31 30 28 26 24 22 20 19 17 15 13 12 10 9 9 8 8 8 9 11 12 13 15 15 16 17 18 19 21 21 21 21 23 25 27 29 32 36 38 36 35 36 39 44 47 50 52 53 54
4 5 6 8 11 13 15 17 19 20 22 23 25 26 28 29 31 33 35 36 38 40 42 43 43 43 41 38 37 37 35 33 32 33 32 31 30 28 26 24 23 21 19 17 15 13 12 10 9 9 8 8 8 9 10 12 13 14 15 16 17 18 18 19 20 20 20 21 23 24 26 29 33 35 35 34 34 36 39 44 47 50 51 52 53
2 2 4 6 8 11 13 15 17 18 20 22 23 25 27 29 31 32 34 35 37 38 39 40 41 39 37 36 36 36 34 33 32 32 31 30 28 26 24 23 21 19 17 15 13 12 10 9 9 8 8 8 9 10 11 13 13 15 16 16 17 18 18 19 20 21 21 21 22 24 26 30 33 34 33 32 33 36 40 44 47 49 50 52 52
Wind_Direction
258 253 249 248 247 245 243 243 242 242 241 241 240 239 239 238 238 238 238 239 240 241 242 243 243 241 238 237 237 236 235 234 233 232 231 230 230 229 230 231 232 234 235 238 243 247 252 255 259 261 263 266 268 268 266 266 269 276 284 291 299 307 310 310 309 310 314 317 318 318 316 314 317 322 323 321 321 321 320 321 320 317 315 314 313
262 259 254 251 250 248 245 245 245 244 243 242 241 240 240 240 239 240 240 239 240 241 242 244 245 243 240 237 236 236 236 235 234 233 231 231 230 229 230 230 231 232 233 237 242 246 251 254 257 258 260 263 266 265 264 264 268 275 282 288 297 304 306 307 308 309 312 315 318 319 316 314 315 320 322 321 320 321 322 322 319 316 315 314 314
264 261 257 255 254 251 248 247 246 245 244 243 241 240 239 239 240 241 241 241 241 241 243 244 245 245 242 239 237 236 236 235 234 233 232 231 231 231 230 230 231 232 234 238 242 245 249 252 254 256 258 261 263 262 261 262 267 273 280 288 295 300 303 305 306 308 310 312 315 317 315 313 314 317 320 319 318 321 325 325 322 320 318 317 316
270 263 260 259 257 254 252 250 248 247 245 244 242 241 240 240 240 242 242 243 243 243 244 245 245 245 243 241 238 236 235 235 234 233 232 232 232 232 231 231 232 233 235 238 241 243 247 250 253 255 257 260 261 260 259 261 265 271 278 287 293 297 300 302 304 306 308 309 312 314 313 311 312 315 318 317 317 321 326 325 323 321 320 321 320
280 274 268 264 259 257 255 254 252 250 248 246 244 243 242 241 242 242 243 244 244 244 244 245 245 245 244 242 239 236 235 235 234 233 232 232 232 232 232 232 232 233 235 237 239 241 244 248 252 255 257 260 260 259 257 259 263 269 278 286 291 294 297 299 302 304 305 307 309 310 310 310 312 314 317 318 319 322 325 324 322 321 321 323 322
285 284 280 272 265 260 257 256 255 254 252 249 247 245 244 243 243 243 244 245 245 245 245 245 245 246 246 244 242 239 236 235 235 234 233 232 232 231 231 231 231 232 234 236 238 240 243 246 250 255 258 260 259 257 256 258 262 269 277 284 287 290 293 297 300 301 302 304 306 308 309 311 312 314 317 321 324 326 324 322 322 322 322 323 322
290 289 286 279 270 263 259 258 259 258 256 252 249 247 246 245 244 244 244 245 245 245 245 245 246 246 246 245 243 241 238 235 235 234 233 233 232 231 230 229 229 230 232 234 236 239 242 245 250 255 258 258 257 254 255 258 263 269 275 280 284 287 291 296 298 298 300 301 303 305 308 311 314 314 318 323 326 328 327 323 322 324 325 324 323
294 292 287 280 273 266 261 261 262 261 257 252 249 248 247 246 246 246 245 245 246 246 246 246 246 246 245 244 243 242 239 236 234 234 233 232 232 231 229 228 229 230 231 233 235 238 241 244 249 253 255 255 253 251 253 257 262 268 273 278 282 285 289 293 295 297 299 300 303 307 309 312 313 315 319 325 326 328 329 326 323 324 325 324 322
296 293 288 283 279 271 264 263 263 259 256 252 250 249 248 248 247 247 247 247 247 247 247 246 246 245 244 243 242 242 240 237 235 233 233 232 231 230 229 228 229 230 231 233 234 236 239 243 247 250 251 250 248 248 252 256 261 267 273 276 278 282 287 291 295 298 300 302 306 310 311 312 315 318 322 325 326 326 328 326 323 322 323 321 320
295 293 290 287 283 275 267 266 264 259 256 254 251 250 249 248 247 247 248 248 247 247 246 245 245 244 243 243 242 242 240 238 235 233 233 233 232 230 229 229 229 230 231 232 234 235 238 241 244 245 246 245 245 248 252 256 262 267 269 270 274 282 290 294 298 300 302 304 307 310 311 312 316 320 320 321 323 324 325 324 321 320 321 319 318
288 289 290 289 285 276 269 266 264 261 258 255 252 250 249 248 247 247 247 247 246 246 245 244 243 243 243 242 242 242 240 238 235 232 232 232 232 230 230 230 230 230 231 232 233 235 237 239 241 242 242 243 245 248 252 258 264 265 266 270 280 289 294 297 300 301 302 304 306 308 309 311 315 317 316 318 321 322 321 320 317 316 317 316 315
289 289 289 289 284 278 272 267 263 261 259 255 252 249 247 247 246 245 245 245 245 244 243 243 242 242 242 242 241 241 241 238 235 233 232 232 231 230 230 230 230 230 231 231 232 233 235 236 238 238 240 242 244 248 253 258 261 263 269 277 284 289 291 293 296 297 297 301 302 303 306 309 311 313 315 318 319 317 314 312 312 314 313 311 310
295 295 293 289 283 279 274 267 263 262 258 254 251 248 245 245 244 244 244 243 243 243 242 242 241 240 240 240 241 241 240 238 235 233 233 232 231 229 229 229 230 230 230 231 232 232 232 234 234 235 237 240 243 249 253 256 259 263 271 277 278 280 285 289 290 291 294 298 298 299 303 305 307 312 317 315 311 311 311 312 313 312 308 304 302
307 304 301 293 286 281 276 269 265 262 257 252 250 246 245 244 244 243 243 241 241 242 241 241 240 240 240 240 240 240 239 237 234 233 233 232 230 229 228 228 228 229 229 230 231 231 231 231 232 233 235 239 244 249 251 253 257 263 269 272 274 279 283 285 286 289 292 294 293 296 301 304 307 311 310 306 304 307 309 308 305 301 298 297 297
331 323 312 300 290 284 278 273 267 262 256 252 249 246 245 244 243 243 242 241 241 242 241 240 239 239 239 239 239 238 237 236 233 232 232 231 230 228 227 226 226 227 228 228 229 229 229 229 230 231 234 239 244 247 249 254 261 267 270 272 276 280 283 285 288 292 294 293 294 299 303 304 304 302 302 302 301 299 297 295 294 295 296 298 300
344 338 327 314 300 289 282 276 269 263 257 253 249 247 246 245 244 243 242 241 240 240 240 240 239 239 239 239 238 237 236 234 232 231 231 230 229 227 225 224 225 225 226 227 226 227 227 227 229 231 234 238 242 246 253 260 265 267 269 272 277 281 285 288 292 294 295 295 296 297 297 296 295 294 296 298 296 295 296 297 299 301 302 302 303
345 343 338 328 314 300 290 282 274 267 262 257 253 250 248 246 245 243 241 240 239 239 239 238 238 239 239 239 237 236 235 233 230 229 229 229 229 227 223 222 223 224 225 225 225 226 226 227 229 232 234 238 243 249 256 261 263 265 270 275 279 283 285 288 290 291 290 291 292 291 291 294 295 296 299 300 300 302 302 302 304 306 304 303 303
341 342 341 336 325 310 299 290 281 272 266 261 257 255 252 249 246 244 242 241 240 240 239 238 238 238 239 239 239 238 237 234 230 229 228 228 229 228 224 222 223 223 223 223 224 225 226 227 230 231 234 238 244 249 253 256 260 265 270 274 277 280 282 286 288 288 288 290 292 292 296 302 304 305 306 305 304 304 301 301 304 304 301 302 304
332 335 337 337 332 321 309 299 288 278 271 266 262 258 254 251 248 245 242 241 241 240 239 238 238 239 238 239 239 238 238 234 230 229 227 227 229 228 224 222 222 222 222 222 223 224 225 227 229 231 235 240 244 247 249 253 258 263 267 271 273 276 281 285 286 287 289 293 296 300 305 309 310 309 307 305 304 303 301 300 300 300 301 303 304
325 326 329 333 334 330 322 310 299 290 281 274 266 260 256 252 248 245 242 241 239 238 238 237 238 239 238 238 238 237 236 233 230 228 225 226 230 228 223 222 223 222 222 223 223 223 223 225 228 232 237 240 242 245 247 250 256 261 264 267 271 277 281 282 282 286 293 298 301 305 308 310 310 308 307 306 306 303 301 299 299 302 304 303 301
319 318 320 325 329 331 328 321 312 303 292 279 269 262 257 252 249 246 243 240 238 236 236 236 236 237 238 238 238 236 236 233 230 228 224 223 228 229 224 223 224 223 223 223 223 222 223 225 228 233 237 238 240 243 245 248 254 259 263 267 272 278 278 279 284 290 295 298 300 303 307 309 309 308 307 306 305 303 303 303 304 305 301 296 295
312 312 312 315 320 324 326 324 319 310 298 284 272 265 259 254 251 247 244 241 238 237 236 235 235 235 236 236 236 235 234 231 229 227 223 220 225 229 227 224 226 226 224 223 222 221 223 226 229 232 234 234 237 241 244 247 250 254 261 266 270 272 273 279 288 293 294 296 298 302 306 309 308 307 307 306 306 308 308 307 306 304 300 295 293
306 305 305 306 309 313 317 319 317 311 303 292 278 268 261 256 251 247 244 242 239 237 237 235 234 234 235 235 235 234 233 230 227 225 222 219 221 228 229 225 225 226 225 224 223 222 223 225 227 228 229 230 234 238 240 243 246 250 256 260 262 266 273 282 288 290 291 294 297 301 305 307 307 307 308 310 312 313 311 308 307 305 303 302 300
303 299 298 299 300 302 306 309 310 309 305 296 283 272 264 258 253 249 246 243 240 238 237 235 234 234 234 234 234 234 232 230 226 222 220 217 217 224 228 225 224 226 225 224 223 222 223 226 226 224 224 225 229 233 235 239 243 245 250 254 259 268 277 282 285 286 289 293 296 300 303 306 306 309 312 314 315 314 312 311 310 310 309 308 308
303 299 295 293 294 295 297 298 301 303 303 297 286 276 267 260 255 251 247 244 241 239 238 236 235 235 235 234 234 233 231 229 224 218 216 214 214 220 227 226 224 225 224 222 221 221 222 224 222 219 218 220 225 231 234 235 239 242 246 253 262 270 277 281 284 287 290 293 295 298 303 306 309 312 315 316 315 314 314 314 314 315 316 315 314
301 298 295 292 289 288 289 289 291 294 297 294 288 280 271 264 258 253 250 246 243 241 239 238 237 236 236 235 234 233 230 227 224 219 214 212 210 215 224 225 223 224 223 220 220 220 219 220 217 213 215 221 226 229 229 229 235 241 247 254 263 271 276 281 285 287 289 292 295 300 306 310 311 314 316 316 316 316 317 318 318 320 322 320 318
296 295 294 291 287 283 282 282 283 286 288 289 288 282 275 268 260 254 251 247 244 242 240 239 237 236 236 235 234 233 230 227 224 219 214 210 206 208 218 221 219 220 220 215 215 217 215 215 215 214 217 222 223 222 223 226 233 241 249 257 265 273 279 282 286 288 290 295 299 304 310 312 313 316 317 316 317 317 319 322 321 322 325 323 317
292 290 290 289 285 280 278 277 278 279 281 282 282 281 277 271 264 260 257 252 248 246 243 241 240 239 237 236 234 231 229 227 225 222 217 213 207 205 211 214 212 214 215 211 210 214 215 215 215 214 215 218 218 218 220 225 231 238 248 258 266 274 280 282 286 290 294 299 303 307 311 313 315 318 318 317 318 319 321 323 322 322 325 322 316
291 287 285 286 283 279 275 273 273 274 275 276 277 277 276 274 269 265 261 256 253 250 248 247 246 243 241 240 238 236 233 231 229 224 220 216 211 207 207 209 209 213 217 215 214 216 216 214 211 209 211 215 216 216 218 221 227 236 247 258 267 274 279 282 287 290 294 300 304 308 312 315 317 319 318 317 318 319 321 324 324 324 324 320 315
291 286 283 283 282 278 273 270 270 270 271 272 273 273 272 271 268 265 262 258 255 252 249 248 248 245 243 243 243 243 244 241 235 226 219 216 213 210 209 212 215 217 219 219 218 218 215 210 205 207 212 214 213 213 217 220 227 237 248 259 267 274 278 282 287 292 296 301 305 309 314 317 319 319 319 319 319 319 321 324 325 324 322 318 315
290 285 282 280 280 278 273 269 267 268 269 270 270 270 268 267 266 264 261 258 256 252 249 248 247 246 245 244 243 243 243 240 235 227 220 215 213 211 210 214 216 217 218 218 217 215 211 208 207 208 209 208 209 212 216 221 228 237 249 260 267 273 279 284 288 293 299 303 307 312 317 319 320 320 320 320 320 320 322 327 327 325 321 317 314
286 282 280 278 278 278 275 270 267 266 266 267 268 266 264 264 263 262 259 257 255 253 250 247 246 245 245 244 242 242 240 237 234 229 222 215 212 209 209 212 213 214 216 217 215 212 210 208 207 207 207 206 208 211 215 221 230 238 247 256 264 272 280 285 289 295 301 305 309 314 319 320 320 320 320 321 321 322 324 327 327 324 321 318 315
282 280 279 278 279 280 277 272 269 266 265 265 266 264 262 261 260 260 258 255 253 251 248 246 245 244 244 244 242 241 240 238 235 230 222 214 209 206 207 210 211 212 215 215 211 209 209 207 205 205 205 205 207 210 214 220 230 240 249 256 261 270 278 284 291 297 301 306 311 317 320 321 321 322 321 322 323 324 325 326 325 323 321 318 317
279 277 276 277 280 281 278 275 272 268 266 265 265 264 262 261 259 258 255 250 248 247 246 245 242 241 242 243 242 240 238 235 234 230 220 212 207 204 205 206 206 209 214 214 210 207 206 205 203 203 203 204 205 208 212 221 232 242 251 259 265 271 279 286 293 299 303 309 314 318 320 322 324 323 321 322 324 325 325 324 323 322 321 319 318
277 274 273 273 275 275 275 276 275 272 269 266 264 263 262 259 257 254 252 249 247 245 245 243 240 238 238 238 238 238 235 232 229 223 216 208 202 200 200 196 194 200 208 210 208 207 205 203 203 202 201 202 204 206 212 224 236 244 252 261 269 276 285 292 298 303 308 312 316 319 322 324 324 323 321 322 325 326 324 322 322 321 320 319 319
278 276 273 273 275 276 276 276 274 273 271 268 265 263 261 258 255 252 249 248 245 244 243 242 238 235 233 233 233 233 232 228 221 213 209 204 199 197 196 193 192 200 206 204 202 202 202 201 201 199 199 201 202 206 216 227 238 247 255 263 271 280 290 297 302 307 311 315 319 322 324 323 321 321 323 325 326 324 321 321 321 321 320 319 319
282 280 277 275 276 277 278 278 277 275 273 270 266 262 258 254 252 249 246 244 242 240 238 236 232 224 218 219 222 222 222 220 213 206 203 200 196 197 200 200 202 207 206 201 198 198 197 197 198 197 197 200 202 209 220 229 239 248 256 265 274 284 293 301 307 311 314 318 321 322 322 321 320 323 327 328 325 323 322 322 321 320 320 320 320
280 278 275 274 274 272 273 276 278 276 273 269 263 257 253 250 247 244 242 240 237 234 231 228 224 217 210 209 209 206 202 200 196 194 194 193 192 196 200 204 207 208 203 198 197 197 196 196 195 194 196 201 206 213 223 231 240 248 255 265 276 287 296 304 310 314 315 318 321 321 321 321 322 325 330 329 324 322 323 323 322 320 321 322 322
279 276 274 274 274 271 269 272 275 274 271 266 259 253 249 245 241 239 237 233 230 227 223 219 217 213 208 204 199 193 189 187 185 185 187 188 191 194 198 202 204 203 199 197 196 194 193 193 193 192 197 204 211 218 227 234 242 250 257 265 277 289 299 306 311 315 316 319 321 322 322 321 322 327 331 328 323 323 324 322 321 321 321 322 324
281 279 278 277 273 268 265 265 269 271 268 263 257 251 246 241 237 235 232 228 224 221 217 214 212 209 205 201 195 189 186 185 184 185 186 187 189 194 198 200 199 197 196 195 192 191 191 191 191 194 200 208 215 223 231 238 244 252 260 270 281 293 303 310 314 316 318 320 321 321 321 321 323 329 331 326 323 324 323 321 321 322 322 323 324
281 280 280 279 275 270 263 258 259 263 265 261 255 250 245 240 235 231 228 224 220 216 213 210 208 205 203 199 193 189 187 185 185 186 187 188 191 196 199 198 196 194 193 191 189 189 189 189 192 198 203 210 219 226 233 241 247 255 266 276 287 298 307 313 316 318 319 320 320 321 321 322 326 330 329 326 325 326 323 321 322 324 324 325 325
282 281 280 278 276 272 265 258 255 256 258 257 253 248 244 238 232 228 224 219 216 212 207 204 203 200 196 193 190 189 189 188 187 187 188 191 196 199 197 195 193 191 189 188 187 188 188 188 194 202 206 213 223 229 235 244 251 260 272 282 292 303 310 314 316 318 319 319 321 321 321 324 329 331 329 329 329 327 324 323 324 326 326 327 327
281 280 279 277 273 269 265 261 255 251 250 251 249 246 242 236 230 225 219 213 210 206 200 197 194 190 188 189 190 191 191 190 189 189 191 194 197 197 193 191 189 186 184 185 186 187 189 192 198 205 210 217 226 231 239 249 256 265 277 287 297 305 310 314 317 318 319 320 321 321 321 324 329 331 331 332 330 325 324 325 327 328 328 327 328
280 277 276 274 269 263 259 257 253 249 247 246 244 240 236 230 223 218 212 207 204 200 196 193 189 184 183 188 191 192 192 191 191 192 194 196 195 192 189 187 184 181 182 184 185 187 192 197 202 207 213 220 228 235 244 253 263 274 283 292 301 306 311 315 316 318 320 321 320 320 321 325 330 333 333 332 328 324 324 327 328 328 329 329 329
278 274 271 269 264 258 253 251 250 246 242 238 234 230 227 222 216 211 207 202 198 195 192 190 186 183 184 189 191 193 194 194 194 195 196 196 193 189 185 183 181 180 182 183 185 189 195 199 203 210 217 224 232 241 251 262 273 283 290 297 303 306 311 314 316 318 320 320 319 320 323 326 331 334 333 329 324 322 324 328 329 329 329 330 330
273 268 264 260 256 252 249 246 243 238 234 231 227 222 218 213 208 205 201 198 195 192 188 185 183 183 186 189 192 193 195 196 196 196 196 193 189 185 182 180 179 180 182 184 187 192 196 198 204 212 221 229 238 249 262 273 283 291 296 301 305 307 310 314 315 317 319 320 319 320 323 327 332 334 330 323 321 323 327 329 329 330 331 331 331
276 267 260 254 248 243 238 234 230 226 223 219 216 211 206 202 199 198 196 194 192 189 186 184 184 186 189 191 192 193 194 194 194 193 191 187 183 181 180 179 180 181 183 186 189 193 195 197 203 212 222 233 245 259 272 282 292 299 301 304 307 309 311 313 314 316 319 320 318 319 324 330 333 330 323 319 321 327 331 330 330 332 333 333 332
281 266 253 243 234 228 223 219 215 211 208 204 202 200 198 196 194 192 192 190 188 186 185 185 186 188 191 192 192 190 189 190 191 189 186 183 181 180 180 180 181 183 185 188 191 193 195 199 206 215 226 238 253 268 281 291 299 302 303 306 309 309 310 311 313 316 318 316 314 319 327 332 329 322 317 319 325 330 331 330 331 334 335 335 335
277 256 240 228 218 213 209 205 202 200 198 196 195 193 192 192 191 189 188 187 186 186 186 187 188 190 191 190 187 186 186 187 187 185 182 180 179 180 180 181 182 184 187 190 192 194 197 203 212 223 234 249 264 276 287 296 301 302 305 308 308 307 309 311 312 314 315 313 315 324 331 328 321 317 317 321 328 332 332 332 333 335 336 336 336
279 243 224 212 202 198 196 195 194 193 192 192 191 189 188 188 188 187 186 186 185 186 187 188 189 191 190 186 183 184 186 186 185 182 181 180 179 180 181 182 184 187 190 191 193 197 202 211 223 234 246 261 275 283 292 299 302 304 308 308 305 306 308 307 308 311 313 313 319 327 327 321 317 317 319 324 331 334 333 333 334 336 337 338 338
320 222 198 191 187 187 187 186 186 187 187 187 187 186 186 186 185 185 186 187 187 187 188 189 190 189 187 185 184 186 186 184 182 180 180 179 179 180 182 184 187 189 191 193 197 203 210 220 232 244 257 270 280 288 295 300 304 307 309 307 305 306 305 304 307 313 314 314 320 324 320 316 316 318 320 326 334 335 333 332 334 337 338 339 339